| time (UTC) | temp F | wind direction | speed knots | gust knots | rain 1hr in | rain 24hr in | rain mn in | humidity % | barometer mb |
| 20260506001104 | 76 | 272 | 2.6 | 8.7 | 0.00 | 0.02 | 0.02 | 40 | 1008.6 |
| 20260506000605 | 76 | 252 | 1.7 | 11.3 | 0.00 | 0.02 | 0.02 | 39 | 1008.6 |
| 20260506000105 | 77 | 273 | 2.6 | 7.8 | 0.00 | 0.02 | 0.02 | 39 | 1008.5 |
| 20260505235605 | 77 | 257 | 4.3 | 12.2 | 0.00 | 0.02 | 0.02 | 39 | 1008.5 |
| 20260505235104 | 77 | 246 | 4.3 | 13.0 | 0.00 | 0.02 | 0.02 | 38 | 1008.5 |
| 20260505234606 | 77 | 270 | 4.3 | 12.2 | 0.00 | 0.02 | 0.02 | 38 | 1008.4 |
| 20260505234105 | 78 | 245 | 2.6 | 10.4 | 0.00 | 0.02 | 0.02 | 37 | 1008.3 |
| 20260505233604 | 78 | 263 | 4.3 | 14.8 | 0.00 | 0.02 | 0.02 | 37 | 1008.2 |
| 20260505233104 | 78 | 264 | 2.6 | 17.4 | 0.00 | 0.02 | 0.02 | 37 | 1008.2 |
| 20260505232104 | 78 | 273 | 5.2 | 12.2 | 0.00 | 0.02 | 0.02 | 37 | 1008.0 |
| 20260505231605 | 79 | 272 | 6.1 | 11.3 | 0.00 | 0.02 | 0.02 | 37 | 1008.0 |
| 20260505231104 | 79 | 242 | 3.5 | 10.4 | 0.00 | 0.02 | 0.02 | 37 | 1008.0 |
| 20260505230604 | 79 | 259 | 5.2 | 15.6 | 0.00 | 0.02 | 0.02 | 36 | 1007.9 |
| 20260505230104 | 79 | 251 | 8.7 | 19.1 | 0.00 | 0.02 | 0.02 | 36 | 1007.8 |
| 20260505225106 | 80 | 264 | 6.1 | 17.4 | 0.00 | 0.02 | 0.02 | 36 | 1007.6 |
| 20260505224605 | 80 | 280 | 6.1 | 17.4 | 0.00 | 0.02 | 0.02 | 35 | 1007.6 |
| 20260505224104 | 80 | 243 | 3.5 | 17.4 | 0.00 | 0.02 | 0.02 | 37 | 1007.5 |
| 20260505223609 | 80 | 249 | 4.3 | 8.7 | 0.00 | 0.02 | 0.02 | 36 | 1007.5 |
| 20260505223104 | 80 | 251 | 2.6 | 8.7 | 0.00 | 0.02 | 0.02 | 36 | 1007.4 |
| 20260505222604 | 80 | 276 | 8.7 | 20.0 | 0.00 | 0.02 | 0.02 | 36 | 1007.4 |
| 20260505222106 | 81 | 288 | 5.2 | 14.8 | 0.00 | 0.02 | 0.02 | 36 | 1007.4 |
| 20260505220605 | 81 | 266 | 2.6 | 17.4 | 0.00 | 0.02 | 0.02 | 37 | 1007.1 |
| 20260505220105 | 81 | 263 | 3.5 | 8.7 | 0.00 | 0.02 | 0.02 | 36 | 1007.1 |
| 20260505215604 | 80 | 259 | 3.5 | 15.6 | 0.00 | 0.02 | 0.02 | 37 | 1007.0 |
| 20260505214105 | 81 | 255 | 2.6 | 14.8 | 0.00 | 0.02 | 0.02 | 36 | 1007.1 |
| 20260505213605 | 81 | 252 | 4.3 | 11.3 | 0.00 | 0.02 | 0.02 | 38 | 1007.0 |
| 20260505212603 | 81 | 246 | 5.2 | 10.4 | 0.00 | 0.02 | 0.02 | 37 | 1007.0 |
| 20260505211604 | 82 | 240 | 4.3 | 12.2 | 0.00 | 0.02 | 0.02 | 35 | 1006.9 |
| 20260505211104 | 83 | 254 | 4.3 | 14.8 | 0.00 | 0.02 | 0.02 | 36 | 1006.8 |
| 20260505210604 | 83 | 253 | 7.0 | 17.4 | 0.00 | 0.02 | 0.02 | 35 | 1006.7 |
| 20260505210105 | 83 | 279 | 8.7 | 18.2 | 0.00 | 0.02 | 0.02 | 34 | 1006.7 |
| 20260505205605 | 84 | 262 | 7.0 | 17.4 | 0.00 | 0.02 | 0.02 | 36 | 1006.5 |
| 20260505205105 | 83 | 268 | 5.2 | 17.4 | 0.00 | 0.02 | 0.02 | 37 | 1006.5 |
| 20260505204605 | 83 | 225 | 5.2 | 10.4 | 0.00 | 0.02 | 0.02 | 36 | 1006.5 |
| 20260505204104 | 83 | 259 | 6.1 | 10.4 | 0.00 | 0.02 | 0.02 | 37 | 1006.5 |
| 20260505203104 | 85 | 235 | 3.5 | 10.4 | 0.00 | 0.02 | 0.02 | 37 | 1006.6 |
| 20260505202104 | 83 | 269 | 4.3 | 11.3 | 0.00 | 0.02 | 0.02 | 37 | 1006.8 |
| 20260505201109 | 83 | 269 | 7.8 | 13.0 | 0.00 | 0.02 | 0.02 | 36 | 1007.0 |
| 20260505200105 | 84 | 237 | 7.0 | 11.3 | 0.00 | 0.02 | 0.02 | 35 | 1007.0 |
| 20260505195604 | 83 | 254 | 5.2 | 14.8 | 0.00 | 0.02 | 0.02 | 36 | 1006.9 |
| 20260505195105 | 83 | 238 | 4.3 | 7.0 | 0.00 | 0.02 | 0.02 | 38 | 1007.1 |
| 20260505194604 | 83 | 259 | 7.8 | 17.4 | 0.00 | 0.02 | 0.02 | 37 | 1007.1 |
| 20260505194104 | 83 | 266 | 6.1 | 13.9 | 0.00 | 0.02 | 0.02 | 36 | 1007.0 |
| 20260505193604 | 83 | 267 | 2.6 | 17.4 | 0.00 | 0.02 | 0.02 | 38 | 1007.2 |
| 20260505193104 | 84 | 256 | 7.8 | 20.9 | 0.00 | 0.02 | 0.02 | 35 | 1007.3 |
| 20260505192604 | 84 | 259 | 4.3 | 13.0 | 0.00 | 0.02 | 0.02 | 36 | 1007.3 |
| 20260505192105 | 84 | 253 | 7.0 | 18.2 | 0.00 | 0.02 | 0.02 | 36 | 1007.4 |
| 20260505191604 | 84 | 246 | 6.1 | 19.1 | 0.00 | 0.02 | 0.02 | 37 | 1007.5 |
| 20260505191104 | 84 | 249 | 4.3 | 13.0 | 0.00 | 0.02 | 0.02 | 37 | 1007.5 |
| 20260505190604 | 83 | 251 | 4.3 | 13.0 | 0.00 | 0.02 | 0.02 | 41 | 1007.5 |
| 20260505190105 | 82 | 238 | 5.2 | 10.4 | 0.00 | 0.02 | 0.02 | 38 | 1007.6 |
| 20260505185105 | 83 | 238 | 4.3 | 11.3 | 0.00 | 0.02 | 0.02 | 40 | 1007.5 |
| 20260505184604 | 83 | 275 | 3.5 | 17.4 | 0.00 | 0.02 | 0.02 | 41 | 1007.7 |
| 20260505184104 | 83 | 254 | 4.3 | 17.4 | 0.00 | 0.02 | 0.02 | 44 | 1007.8 |
| 20260505183605 | 82 | 270 | 6.1 | 13.9 | 0.00 | 0.02 | 0.02 | 42 | 1007.9 |
| 20260505183104 | 82 | 272 | 5.2 | 11.3 | 0.00 | 0.02 | 0.02 | 42 | 1008.1 |
| 20260505182605 | 82 | 247 | 4.3 | 12.2 | 0.00 | 0.02 | 0.02 | 42 | 1008.0 |
| 20260505182104 | 82 | 292 | 2.6 | 10.4 | 0.00 | 0.02 | 0.02 | 41 | 1008.2 |
| 20260505181604 | 82 | 287 | 4.3 | 8.7 | 0.00 | 0.02 | 0.02 | 40 | 1008.3 |
| 20260505180604 | 83 | 303 | 7.0 | 14.8 | 0.00 | 0.02 | 0.02 | 38 | 1008.4 |
| 20260505180104 | 84 | 294 | 7.8 | 17.4 | 0.00 | 0.02 | 0.02 | 41 | 1008.3 |
| 20260505175104 | 83 | 298 | 7.8 | 21.7 | 0.00 | 0.02 | 0.02 | 41 | 1008.4 |
| 20260505174604 | 84 | 292 | 10.4 | 19.1 | 0.00 | 0.02 | 0.02 | 38 | 1008.5 |
| 20260505174104 | 83 | 283 | 2.6 | 14.8 | 0.00 | 0.02 | 0.02 | 42 | 1008.4 |
| 20260505173604 | 83 | 285 | 7.0 | 12.2 | 0.00 | 0.02 | 0.02 | 40 | 1008.4 |
| 20260505173105 | 83 | 314 | 7.8 | 18.2 | 0.00 | 0.02 | 0.02 | 42 | 1008.5 |
| 20260505172104 | 83 | 299 | 0.9 | 13.0 | 0.00 | 0.02 | 0.02 | 42 | 1008.3 |
| 20260505171604 | 82 | 291 | 6.1 | 17.4 | 0.00 | 0.02 | 0.02 | 42 | 1008.5 |
| 20260505171104 | 81 | 224 | 7.8 | 17.4 | 0.00 | 0.02 | 0.02 | 42 | 1008.4 |
| 20260505170605 | 82 | 269 | 7.8 | 14.8 | 0.00 | 0.02 | 0.02 | 42 | 1008.6 |
| 20260505165604 | 82 | 274 | 5.2 | 11.3 | 0.00 | 0.02 | 0.02 | 43 | 1008.8 |
| 20260505164604 | 81 | 309 | 7.0 | 14.8 | 0.00 | 0.02 | 0.02 | 41 | 1009.1 |
| 20260505164104 | 81 | 299 | 1.7 | 10.4 | 0.00 | 0.02 | 0.02 | 47 | 1009.1 |
| 20260505163104 | 81 | 258 | 3.5 | 11.3 | 0.00 | 0.02 | 0.02 | 45 | 1009.2 |
| 20260505162604 | 80 | 280 | 7.8 | 17.4 | 0.00 | 0.02 | 0.02 | 44 | 1009.5 |
| 20260505162104 | 80 | 291 | 10.4 | 17.4 | 0.00 | 0.02 | 0.02 | 42 | 1009.7 |
| 20260505161604 | 80 | 289 | 6.1 | 11.3 | 0.00 | 0.02 | 0.02 | 44 | 1009.7 |
| 20260505160104 | 80 | 290 | 8.7 | 14.8 | 0.00 | 0.02 | 0.02 | 43 | 1010.0 |
| 20260505153104 | 79 | 334 | 4.3 | 15.6 | 0.00 | 0.02 | 0.02 | 47 | 1010.0 |
| 20260505152104 | 79 | 300 | 8.7 | 13.0 | 0.00 | 0.02 | 0.02 | 46 | 1010.2 |
| 20260505151604 | 78 | 302 | 5.2 | 11.3 | 0.00 | 0.02 | 0.02 | 48 | 1010.0 |
| 20260505151103 | 78 | 312 | 7.0 | 17.4 | 0.00 | 0.02 | 0.02 | 46 | 1009.8 |
| 20260505150604 | 78 | 312 | 9.6 | 15.6 | 0.00 | 0.02 | 0.02 | 46 | 1009.9 |
| 20260505150105 | 78 | 301 | 2.6 | 14.8 | 0.00 | 0.02 | 0.02 | 50 | 1010.0 |
| 20260505140604 | 72 | 148 | 1.7 | 2.6 | 0.00 | 0.02 | 0.02 | 63 | 1010.5 |
| 20260505140104 | 72 | 151 | 0.9 | 2.6 | 0.00 | 0.02 | 0.02 | 64 | 1010.6 |
| 20260505130105 | 66 | 132 | 0.9 | 2.6 | 0.00 | 0.02 | 0.02 | 74 | 1010.7 |
| 20260505124104 | 64 | 142 | 0.9 | 2.6 | 0.00 | 0.02 | 0.02 | 79 | 1010.5 |
| 20260505123604 | 63 | 163 | 0.9 | 1.7 | 0.00 | 0.02 | 0.02 | 80 | 1010.5 |
| 20260505123103 | 61 | 163 | 0.0 | 0.0 | 0.00 | 0.02 | 0.02 | 80 | 1010.6 |
| 20260505122604 | 60 | 163 | 0.0 | 0.0 | 0.00 | 0.02 | 0.02 | 82 | 1010.6 |
| 20260505122104 | 60 | 163 | 0.0 | 0.0 | 0.00 | 0.02 | 0.02 | 83 | 1010.6 |
| 20260505121605 | 60 | 163 | 0.0 | 0.9 | 0.00 | 0.02 | 0.02 | 83 | 1010.7 |
| 20260505120605 | 59 | 179 | 1.7 | 2.6 | 0.01 | 0.02 | 0.02 | 85 | 1010.9 |
| 20260505120105 | 59 | 120 | 0.0 | 2.6 | 0.01 | 0.02 | 0.02 | 86 | 1011.0 |
| 20260505115604 | 59 | 37 | 0.9 | 2.6 | 0.02 | 0.02 | 0.02 | 86 | 1010.8 |
| 20260505115104 | 58 | 357 | 0.9 | 2.6 | 0.02 | 0.02 | 0.02 | 86 | 1010.7 |
| 20260505114605 | 58 | 125 | 0.0 | 0.9 | 0.02 | 0.02 | 0.02 | 85 | 1010.9 |
| 20260505113604 | 58 | 125 | 1.7 | 2.6 | 0.02 | 0.02 | 0.02 | 84 | 1010.8 |
| 20260505113104 | 58 | 125 | 0.0 | 1.7 | 0.02 | 0.02 | 0.02 | 83 | 1010.8 |
| 20260505112605 | 58 | 125 | 0.9 | 2.6 | 0.02 | 0.02 | 0.02 | 82 | 1010.8 |
| 20260505111604 | 60 | 223 | 1.7 | 7.8 | 0.02 | 0.02 | 0.02 | 82 | 1010.6 |
| 20260505110603 | 58 | 271 | 2.6 | 11.3 | 0.01 | 0.01 | 0.01 | 82 | 1009.8 |
| 20260505110104 | 58 | 235 | 2.6 | 7.8 | 0.01 | 0.01 | 0.01 | 80 | 1010.8 |
| 20260505102104 | 54 | 194 | 0.0 | 1.7 | 0.00 | 0.00 | 0.00 | 80 | 1011.1 |
| 20260505101103 | 54 | 194 | 0.0 | 0.0 | 0.00 | 0.00 | 0.00 | 80 | 1011.2 |
| 20260505100604 | 54 | 194 | 0.0 | 0.0 | 0.00 | 0.00 | 0.00 | 80 | 1011.0 |
| 20260505100104 | 53 | 194 | 0.0 | 0.0 | 0.00 | 0.00 | 0.00 | 80 | 1011.0 |
| 20260505095604 | 53 | 194 | 0.0 | 0.0 | 0.00 | 0.00 | 0.00 | 80 | 1010.8 |
| 20260505094604 | 53 | 194 | 0.0 | 0.0 | 0.00 | 0.00 | 0.00 | 79 | 1010.6 |
| 20260505092603 | 54 | 194 | 0.0 | 0.0 | 0.00 | 0.00 | 0.00 | 77 | 1010.2 |
| 20260505092103 | 54 | 194 | 0.0 | 0.0 | 0.00 | 0.00 | 0.00 | 76 | 1010.1 |
| 20260505091604 | 54 | 194 | 0.0 | 0.0 | 0.00 | 0.00 | 0.00 | 75 | 1010.0 |
| 20260505091104 | 55 | 194 | 0.0 | 0.0 | 0.00 | 0.00 | 0.00 | 75 | 1010.1 |
| 20260505090604 | 55 | 194 | 0.0 | 0.0 | 0.00 | 0.00 | 0.00 | 74 | 1010.0 |
| 20260505090104 | 56 | 194 | 0.0 | 0.0 | 0.00 | 0.00 | 0.00 | 73 | 1010.1 |
| 20260505085604 | 56 | 194 | 0.0 | 0.0 | 0.00 | 0.00 | 0.00 | 73 | 1010.1 |
| 20260505085104 | 56 | 194 | 0.0 | 0.0 | 0.00 | 0.00 | 0.00 | 72 | 1010.2 |
| 20260505084604 | 56 | 194 | 0.0 | 1.7 | 0.00 | 0.00 | 0.00 | 72 | 1010.3 |
| 20260505084104 | 57 | 228 | 0.0 | 0.9 | 0.00 | 0.00 | 0.00 | 72 | 1010.3 |
| 20260505083103 | 57 | 237 | 0.0 | 1.7 | 0.00 | 0.00 | 0.00 | 71 | 1010.3 |
| 20260505082604 | 57 | 278 | 0.0 | 0.0 | 0.00 | 0.00 | 0.00 | 71 | 1010.4 |
| 20260505082104 | 57 | 272 | 0.0 | 0.0 | 0.00 | 0.00 | 0.00 | 70 | 1010.3 |
| 20260505081603 | 57 | 272 | 0.0 | 0.9 | 0.00 | 0.00 | 0.00 | 69 | 1010.2 |
| 20260505081103 | 58 | 272 | 0.0 | 0.9 | 0.00 | 0.00 | 0.00 | 69 | 1010.2 |
| 20260505080605 | 58 | 278 | 0.0 | 1.7 | 0.00 | 0.00 | 0.00 | 69 | 1010.1 |
| 20260505080104 | 58 | 280 | 0.9 | 4.3 | 0.00 | 0.00 | 0.00 | 69 | 1010.2 |
| 20260505075604 | 58 | 254 | 0.9 | 2.6 | 0.00 | 0.00 | 0.00 | 69 | 1010.3 |
| 20260505075104 | 58 | 252 | 1.7 | 4.3 | 0.00 | 0.00 | 0.00 | 68 | 1010.3 |
| 20260505074603 | 58 | 258 | 0.9 | 1.7 | 0.00 | 0.00 | 0.00 | 68 | 1010.4 |
| 20260505074104 | 59 | 280 | 1.7 | 4.3 | 0.00 | 0.00 | 0.00 | 68 | 1010.4 |
| 20260505073605 | 59 | 259 | 0.9 | 2.6 | 0.00 | 0.00 | 0.00 | 68 | 1010.4 |
| 20260505073104 | 59 | 255 | 0.0 | 2.6 | 0.00 | 0.00 | 0.00 | 67 | 1010.4 |
| 20260505072104 | 59 | 239 | 1.7 | 8.7 | 0.00 | 0.00 | 0.00 | 67 | 1010.4 |
| 20260505071605 | 59 | 250 | 0.9 | 8.7 | 0.00 | 0.00 | 0.00 | 66 | 1010.3 |
| 20260505071105 | 59 | 264 | 1.7 | 4.3 | 0.00 | 0.00 | 0.00 | 66 | 1010.4 |
| 20260505070604 | 59 | 298 | 1.7 | 5.2 | 0.00 | 0.00 | 0.00 | 66 | 1010.4 |
| 20260505070104 | 59 | 295 | 0.9 | 2.6 | 0.00 | 0.00 | 0.00 | 65 | 1010.4 |
| 20260505065104 | 60 | 259 | 0.0 | 5.2 | 0.00 | 0.00 | 0.00 | 64 | 1010.3 |
| 20260505064605 | 60 | 251 | 1.7 | 7.0 | 0.00 | 0.00 | 0.00 | 63 | 1010.2 |
| 20260505064104 | 60 | 272 | 2.6 | 7.0 | 0.00 | 0.00 | 0.00 | 63 | 1010.3 |
| 20260505063603 | 60 | 219 | 4.3 | 7.8 | 0.00 | 0.00 | 0.00 | 63 | 1010.3 |
| 20260505063104 | 60 | 204 | 1.7 | 4.3 | 0.00 | 0.00 | 0.00 | 63 | 1010.2 |
| 20260505062604 | 60 | 229 | 1.7 | 5.2 | 0.00 | 0.00 | 0.00 | 62 | 1010.2 |
| 20260505062104 | 60 | 217 | 1.7 | 5.2 | 0.00 | 0.00 | 0.00 | 62 | 1010.3 |
| 20260505061604 | 60 | 230 | 1.7 | 6.1 | 0.00 | 0.00 | 0.00 | 62 | 1010.3 |
| 20260505060605 | 60 | 249 | 2.6 | 6.1 | 0.00 | 0.00 | 0.00 | 61 | 1010.4 |
| 20260505060105 | 60 | 243 | 1.7 | 5.2 | 0.00 | 0.00 | 0.00 | 60 | 1010.5 |
| 20260505055604 | 60 | 271 | 4.3 | 8.7 | 0.00 | 0.00 | 0.00 | 60 | 1010.5 |
| 20260505055104 | 60 | 304 | 0.0 | 1.7 | 0.00 | 0.00 | 0.00 | 59 | 1010.5 |
| 20260505054605 | 60 | 294 | 1.7 | 6.1 | 0.00 | 0.00 | 0.00 | 59 | 1010.5 |
| 20260505054105 | 60 | 281 | 1.7 | 7.0 | 0.00 | 0.00 | 0.00 | 59 | 1010.6 |
| 20260505053603 | 61 | 258 | 2.6 | 6.1 | 0.00 | 0.00 | 0.00 | 58 | 1010.6 |
| 20260505053104 | 61 | 282 | 1.7 | 7.0 | 0.00 | 0.00 | 0.00 | 58 | 1010.6 |
| 20260505051604 | 60 | 281 | 2.6 | 5.2 | 0.00 | 0.00 | 0.00 | 58 | 1010.5 |
| 20260505051104 | 61 | 290 | 0.9 | 7.0 | 0.00 | 0.00 | 0.00 | 57 | 1010.5 |
| 20260505050604 | 61 | 252 | 0.9 | 2.6 | 0.00 | 0.00 | 0.00 | 57 | 1010.5 |
| 20260505050105 | 61 | 306 | 1.7 | 5.2 | 0.00 | 0.00 | 0.00 | 56 | 1010.4 |
| 20260505041604 | 61 | 281 | 1.7 | 7.0 | 0.00 | 0.00 | 0.00 | 56 | 1010.7 |
| 20260505041104 | 61 | 276 | 0.0 | 0.9 | 0.00 | 0.00 | 0.00 | 56 | 1010.6 |
| 20260505040604 | 61 | 276 | 0.9 | 4.3 | 0.00 | 0.00 | 0.00 | 55 | 1010.7 |
| 20260505040104 | 61 | 242 | 1.7 | 7.8 | 0.00 | 0.00 | 0.00 | 56 | 1010.7 |
| 20260505035604 | 61 | 270 | 0.0 | 1.7 | 0.00 | 0.00 | 0.00 | 56 | 1010.7 |
| 20260505035104 | 61 | 273 | 0.9 | 4.3 | 0.00 | 0.00 | 0.00 | 56 | 1010.7 |
| 20260505034604 | 60 | 263 | 1.7 | 6.1 | 0.00 | 0.00 | 0.00 | 57 | 1010.7 |
| 20260505034104 | 60 | 266 | 0.9 | 2.6 | 0.00 | 0.00 | 0.00 | 57 | 1010.8 |
| 20260505033605 | 60 | 266 | 0.9 | 2.6 | 0.00 | 0.00 | 0.00 | 56 | 1010.8 |
| 20260505033104 | 60 | 266 | 1.7 | 2.6 | 0.00 | 0.00 | 0.00 | 56 | 1010.9 |
| 20260505032605 | 60 | 266 | 0.0 | 2.6 | 0.00 | 0.00 | 0.00 | 57 | 1010.9 |
| 20260505032105 | 60 | 266 | 0.0 | 1.7 | 0.00 | 0.00 | 0.00 | 56 | 1010.9 |
| 20260505031604 | 60 | 266 | 0.0 | 1.7 | 0.00 | 0.00 | 0.00 | 56 | 1010.9 |
| 20260505031103 | 61 | 266 | 0.0 | 0.9 | 0.00 | 0.00 | 0.00 | 56 | 1010.9 |
| 20260505030104 | 61 | 266 | 0.9 | 2.6 | 0.00 | 0.00 | 0.00 | 55 | 1010.9 |
| 20260505025603 | 61 | 266 | 0.9 | 1.7 | 0.00 | 0.00 | 0.00 | 55 | 1010.9 |
| 20260505024604 | 62 | 254 | 0.0 | 1.7 | 0.00 | 0.00 | 0.00 | 54 | 1010.9 |
| 20260505024105 | 62 | 280 | 1.7 | 4.3 | 0.00 | 0.00 | 0.00 | 54 | 1010.9 |
| 20260505023104 | 62 | 274 | 1.7 | 2.6 | 0.00 | 0.00 | 0.00 | 54 | 1011.0 |
| 20260505022605 | 62 | 272 | 0.9 | 5.2 | 0.00 | 0.00 | 0.00 | 54 | 1011.0 |
| 20260505022105 | 62 | 286 | 0.0 | 2.6 | 0.00 | 0.00 | 0.00 | 54 | 1011.0 |
| 20260505021604 | 62 | 201 | 0.9 | 1.7 | 0.00 | 0.00 | 0.00 | 54 | 1011.0 |
| 20260505021103 | 62 | 234 | 0.9 | 2.6 | 0.00 | 0.00 | 0.00 | 54 | 1011.1 |
| 20260505020604 | 62 | 244 | 0.0 | 2.6 | 0.00 | 0.00 | 0.00 | 53 | 1011.0 |
| 20260505020104 | 62 | 284 | 0.0 | 5.2 | 0.00 | 0.00 | 0.00 | 53 | 1011.0 |
| 20260505015604 | 62 | 233 | 0.9 | 2.6 | 0.00 | 0.00 | 0.00 | 53 | 1010.9 |
| 20260505015104 | 62 | 222 | 0.0 | 0.9 | 0.00 | 0.00 | 0.00 | 53 | 1010.9 |
| 20260505014604 | 62 | 222 | 0.9 | 2.6 | 0.00 | 0.00 | 0.00 | 53 | 1010.9 |
| 20260505014103 | 62 | 262 | 0.9 | 2.6 | 0.00 | 0.00 | 0.00 | 53 | 1010.9 |
| 20260505013604 | 62 | 253 | 0.9 | 2.6 | 0.00 | 0.00 | 0.00 | 53 | 1010.8 |
| 20260505013105 | 62 | 253 | 0.9 | 1.7 | 0.00 | 0.00 | 0.00 | 53 | 1010.7 |
| 20260505012604 | 63 | 251 | 0.9 | 2.6 | 0.00 | 0.00 | 0.00 | 52 | 1010.6 |
| 20260505012104 | 63 | 251 | 0.0 | 0.9 | 0.00 | 0.00 | 0.00 | 52 | 1010.6 |
| 20260505011604 | 63 | 251 | 0.0 | 0.9 | 0.00 | 0.00 | 0.00 | 52 | 1010.5 |
| 20260505011104 | 63 | 251 | 0.0 | 1.7 | 0.00 | 0.00 | 0.00 | 51 | 1010.5 |
| 20260505010604 | 63 | 251 | 0.0 | 0.9 | 0.00 | 0.00 | 0.00 | 51 | 1010.4 |
| 20260505005604 | 64 | 251 | 0.0 | 0.9 | 0.00 | 0.00 | 0.00 | 49 | 1010.3 |
| 20260505005104 | 64 | 251 | 0.0 | 0.9 | 0.00 | 0.00 | 0.00 | 49 | 1010.2 |
| 20260505004604 | 64 | 251 | 0.0 | 0.0 | 0.00 | 0.00 | 0.00 | 49 | 1010.1 |
| 20260505003604 | 65 | 251 | 0.9 | 1.7 | 0.00 | 0.00 | 0.00 | 48 | 1010.0 |
| 20260505003105 | 65 | 251 | 0.0 | 0.0 | 0.00 | 0.00 | 0.00 | 47 | 1010.0 |
| 20260505002604 | 65 | 251 | 0.9 | 5.2 | 0.00 | 0.00 | 0.00 | 47 | 1009.9 |